Home   Weather   Piraeus   Past weeks

Flag for Greece Past Weather in Piraeus, Greece — Yesterday and Last 2 Weeks

Now
46 °F

Drizzle. Mostly cloudy.


Feels Like: 41 °F
Forecast: 45 / 50 °F
Wind: 12 mph from North

Location: Elefsis Airport

Current Time: Jan 24, 2017 at 9:36:44 pm

Latest Report: Jan 24, 2017 at 8:50 pm


Visibility: N/A

Pressure: 29.89 "Hg

Humidity: 76%

Dew Point: 39 °F

Location of PiraeusLocation

Past Weather in Piraeus — Graph

°F

Piraeus Temperature Yesterday

Maximum temperature yesterday: 50 °F (at 11:50 am)
Minimum temperature yesterday: 43 °F (at 12:20 am)
Average temperature yesterday: 46 °F

High & Low Weather Summary for the Past Weeks

 TemperatureHumidityPressure
High64 °F (Jan 14, 1:50 pm)94% (Jan 11, 4:50 pm)30.45 "Hg (Jan 11, 4:50 pm)
Low28 °F (Jan 9, 10:20 pm)23% (Jan 15, 12:20 pm)29.68 "Hg (Jan 14, 1:50 pm)
Average46 °F69%30.07 "Hg
* Reported Jan 9 7:20 pm — Jan 24 7:50 pm, Piraeus, Weather by CustomWeather, © 2017

Note: Actual official high and low records may vary slightly from our data, if they occured in-between our weather recording intervals... More about our weather records

Advertising

Piraeus Weather History for the Previous 24 Hours

Scroll right to see more
 ConditionsComfort  
Time TempWeatherWind HumidityBarometerVisibility
7:50 pm
Tue, Jan 24
46 °FDrizzle. Mostly cloudy.14 mph76%29.92 "HgN/A
7:20 pm46 °FLight rain. Mostly cloudy.16 mph76%29.92 "HgN/A
6:50 pm46 °FLight rain. Mostly cloudy.17 mph76%29.89 "HgN/A
6:20 pm46 °FMostly cloudy.17 mph76%29.92 "HgN/A
5:50 pm46 °FMostly cloudy.17 mph76%29.92 "HgN/A
5:20 pm46 °FMostly cloudy.16 mph76%29.89 "HgN/A
4:50 pm48 °FMostly cloudy.16 mph71%29.89 "HgN/A
4:20 pm46 °FMostly cloudy.14 mph76%29.89 "HgN/A
3:50 pm46 °FLight rain. Mostly cloudy.14 mph76%29.92 "Hg6 mi
3:20 pm46 °FLight rain. Mostly cloudy.14 mph76%29.92 "Hg6 mi
2:50 pm48 °FLight rain. Mostly cloudy.16 mph71%29.92 "HgN/A
2:20 pm48 °FLight rain. Mostly cloudy.14 mph71%29.92 "HgN/A
1:50 pm48 °FLight rain. Mostly cloudy.13 mph71%29.92 "HgN/A
1:20 pm48 °FMostly cloudy.12 mph71%29.95 "HgN/A
12:50 pm48 °FMostly cloudy.14 mph71%29.95 "HgN/A
12:20 pm48 °FMostly cloudy.14 mph71%29.98 "HgN/A
11:50 am48 °FMostly cloudy.12 mph71%29.98 "HgN/A
11:20 am48 °FMostly cloudy.12 mph71%30.01 "HgN/A
10:50 am48 °FMostly cloudy.12 mph71%30.01 "HgN/A
10:20 am48 °FMostly cloudy.10 mph71%30.01 "HgN/A
9:50 am46 °FMostly cloudy.12 mph76%30.01 "HgN/A
9:20 am46 °FMostly cloudy.12 mph76%30.01 "HgN/A
8:50 am46 °FLight rain. Mostly cloudy.12 mph76%30.04 "HgN/A
8:20 am46 °FLight rain. Mostly cloudy.9 mph76%30.04 "HgN/A
7:50 am46 °FLight rain. Mostly cloudy.9 mph76%30.04 "HgN/A
7:20 am46 °FDrizzle. Mostly cloudy.8 mph76%30.04 "HgN/A
6:50 am45 °FMostly cloudy.3 mph87%30.04 "HgN/A
6:20 am45 °FLight rain. Mostly cloudy.3 mph87%30.04 "HgN/A
5:50 am43 °FRain. Mostly cloudy.No wind93%30.04 "Hg5 mi
5:20 am43 °FRain. Mostly cloudy.No wind93%30.07 "Hg5 mi
4:50 am45 °FRain. Mostly cloudy.No wind87%30.07 "Hg5 mi
4:20 am45 °FRain. Partly cloudy.No wind81%30.09 "Hg5 mi
3:50 am45 °FLight rain. Partly cloudy.No wind81%30.09 "HgN/A
3:20 am45 °FLight rain. Partly cloudy.No wind81%30.09 "Hg5 mi
2:50 am45 °FRain. Partly cloudy.No wind81%30.09 "Hg5 mi
1:50 am45 °FPartly cloudy.5 mph81%30.12 "Hg5 mi
12:50 am46 °FLight rain. Partly cloudy.3 mph71%30.15 "HgN/A
12:20 am46 °FPartly cloudy.5 mph66%30.15 "HgN/A
11:50 pm
Mon, Jan 23
46 °FLight rain. Partly cloudy.7 mph66%30.15 "HgN/A
11:20 pm48 °FRain. Partly cloudy.8 mph62%30.15 "HgN/A
10:50 pm48 °FPartly cloudy.7 mph58%30.15 "HgN/A
10:20 pm48 °FPartly cloudy.3 mph62%30.18 "HgN/A
9:50 pm48 °FPartly cloudy.3 mph62%30.21 "HgN/A
9:20 pm46 °FPartly cloudy.3 mph66%30.21 "HgN/A
Weather by CustomWeather, © 2017

See weather overviewHow to use our weather pages